Weather History for Dayton, OH

Change the Weather History Date:

Wednesday, June 19, 2013

  Actual Average Record
Temperature  
Mean Temperature 68 °F 72 °F  
Max Temperature 78 °F 81 °F 98 °F (1994)
Min Temperature 57 °F 62 °F 46 °F (1909)
Degree Days  
Heating Degree Days 0 0  
Month to date heating degree days 11 22  
Since 1 June heating degree days 11 22  
Since 1 July heating degree days 5457 5642  
Cooling Degree Days 3 7  
Month to date cooling degree days 97 101  
Year to date cooling degree days 228 171  
Since 1 June cooling degree days 97 101  
Growing Degree Days 18 (Base 50)    
Moisture  
Dew Point 52 °F    
Average Humidity 60    
Maximum Humidity 87    
Minimum Humidity 32    
Precipitation  
Precipitation 0.00 in 0.14 in 1.13 in (1928)
Month to date precipitation 2.17 2.67  
Year to date precipitation 16.47 19.71  
Snow  
Snow 0.00 in 0.00 in 0.00 in ()
Month to date snowfall 0.0 0.0  
Since 1 June snowfall 0.0 0.0  
Since 1 July snowfall 36.3 23.3  
Snow Depth 0.00 in    
Sea Level Pressure  
Sea Level Pressure 30.09 in    
Wind  
Wind Speed 5 mph (NE)    
Max Wind Speed 12 mph    
Max Gust Speed 20 mph    
Visibility 10 miles    
Events      
T = Trace of Precipitation, MM = Missing Value Source: NWS Daily Summary

Daily Weather History Graph

Daily Weather History Graph

Search for Another Location

Airport:

Trip Planner

Search our weather history database for the weather conditions in past years. The results will help you decide how hot, cold, wet, or windy it might be!

Date:

Astronomy

Jun. 19, 2013 Rise Set
Actual Time 6:08 AM EDT 9:08 PM EDT
Civil Twilight 5:35 AM EDT 9:41 PM EDT
Nautical Twilight 4:53 AM EDT 10:22 PM EDT
Astronomical Twilight 4:05 AM EDT 11:11 PM EDT
Moon 5:00 PM EDT (6/19) 2:52 AM EDT (6/19)
Length of Visible Light 16h 05m
Length of Day
15h 00m
Waxing Gibbous, 80% of the Moon is Illuminated
Jun 19
Waxing Gibbous
Jun 23
Full
Jun 30
Last Quarter
Jul 8
New
Jul 15
First Quarter

Hourly Weather History & Observations

Time (EDT) Temp. Dew Point Humidity Pressure Visibility Wind Dir Wind Speed Gust Speed Precip Events Conditions
12:56 AM 62.1 °F 55.9 °F 80% 30.03 in 10.0 mi NE 6.9 mph - N/A   Clear
1:56 AM 60.1 °F 55.9 °F 86% 30.04 in 10.0 mi NE 6.9 mph - N/A   Clear
2:56 AM 60.1 °F 55.0 °F 83% 30.04 in 10.0 mi NNE 6.9 mph - N/A   Clear
3:56 AM 59.0 °F 55.0 °F 87% 30.04 in 10.0 mi NNE 5.8 mph - N/A   Clear
4:56 AM 57.0 °F 54.0 °F 89% 30.04 in 10.0 mi NNE 6.9 mph - N/A   Clear
5:56 AM 57.0 °F 54.0 °F 89% 30.07 in 10.0 mi North 4.6 mph - N/A   Clear
6:56 AM 57.9 °F 54.0 °F 87% 30.09 in 10.0 mi North 5.8 mph - N/A   Clear
7:56 AM 60.1 °F 53.1 °F 78% 30.11 in 10.0 mi NNE 6.9 mph - N/A   Clear
8:56 AM 64.0 °F 53.1 °F 67% 30.12 in 10.0 mi ENE 8.1 mph - N/A   Clear
9:56 AM 66.9 °F 51.1 °F 57% 30.13 in 10.0 mi NE 8.1 mph - N/A   Clear
10:56 AM 69.1 °F 52.0 °F 54% 30.13 in 10.0 mi NNE 3.5 mph - N/A   Clear
11:56 AM 72.0 °F 51.1 °F 48% 30.13 in 10.0 mi Variable 5.8 mph - N/A   Clear
12:56 PM 73.0 °F 52.0 °F 48% 30.13 in 10.0 mi Variable 5.8 mph - N/A   Clear
1:56 PM 75.0 °F 52.0 °F 44% 30.11 in 10.0 mi ENE 4.6 mph - N/A   Clear
2:56 PM 75.9 °F 51.1 °F 42% 30.10 in 10.0 mi East 4.6 mph - N/A   Clear
3:56 PM 78.1 °F 51.1 °F 39% 30.10 in 10.0 mi NNE 9.2 mph - N/A   Clear
4:56 PM 77.0 °F 48.9 °F 37% 30.09 in 10.0 mi ENE 4.6 mph - N/A   Clear
5:56 PM 78.1 °F 46.9 °F 33% 30.08 in 10.0 mi Variable 3.5 mph - N/A   Clear
6:56 PM 78.1 °F 46.9 °F 33% 30.08 in 10.0 mi East 4.6 mph - N/A   Clear
7:56 PM 75.0 °F 48.0 °F 38% 30.09 in 10.0 mi East 5.8 mph - N/A   Clear
8:56 PM 73.0 °F 48.9 °F 42% 30.10 in 10.0 mi ENE 3.5 mph - N/A   Clear
9:56 PM 69.1 °F 51.1 °F 53% 30.11 in 10.0 mi Calm Calm - N/A   Clear
10:56 PM 66.0 °F 48.9 °F 54% 30.14 in 10.0 mi Calm Calm - N/A   Clear
11:56 PM 64.9 °F 48.9 °F 56% 30.14 in 10.0 mi East 5.8 mph - N/A   Clear